Regional Weather Roundup
Issued by NWS

Home | Current Version | Previous Version | Graphics & Text | Print | Product List | Glossary Off
Versions: 1 2 3 4 5 6 7 8 9 10 11 12 13 14 15 16 17 18 19 20 21 22 23 24 25 26 27 28 29 30 31 32 33 34 35 36 37 38 39 40 41 42 43 44 45 46 47 48 49 50

000
ASUS43 KMKX 231820
RWRWI

WISCONSIN REGIONAL WEATHER ROUNDUP
NATIONAL WEATHER SERVICE MILWAUKEE/SULLIVAN WI
100 PM CDT WED JUL 23 2014

NOTE: "FAIR" INDICATES FEW OR NO CLOUDS BELOW 12,000 FEET WITH NO
SIGNIFICANT WEATHER AND/OR OBSTRUCTIONS TO VISIBILITY.

WIZ001-002-006>008-014>016-023>028-231900-
NORTHWEST WISCONSIN

CITY           SKY/WX    TMP DP  RH WIND       PRES   REMARKS
SUPERIOR ARPT  MOSUNNY   72  58  62 E8        30.24S
6HR MIN TEMP:  55; 6HR MAX TEMP:  74;

ASHLAND        MOSUNNY   72  58  61 NE8       30.25S
6HR MIN TEMP:  54; 6HR MAX TEMP:  73;

HAYWARD        MOSUNNY   74  51  44 N8        30.24S
6HR MIN TEMP:  52; 6HR MAX TEMP:  75;

SIREN          PTSUNNY   76  51  42 E3        30.24S
6HR MIN TEMP:  57; 6HR MAX TEMP:  77;

RICE LAKE      MOSUNNY   75  51  43 NW6       30.24S
6HR MIN TEMP:  57; 6HR MAX TEMP:  75;

LADYSMITH      MOSUNNY   74  55  49 N9        30.24S
6HR MIN TEMP:  58; 6HR MAX TEMP:  76;

EAU CLAIRE     MOSUNNY   79  55  43 NE6       30.21S
6HR MIN TEMP:  60; 6HR MAX TEMP:  80;

MENOMONIE      MOCLDY    78  51  38 N6        30.22S
6HR MIN TEMP:  62; 6HR MAX TEMP:  79;

NEW RICHMOND   MOSUNNY   77  51  40 NW3       30.24R
6HR MIN TEMP:  58; 6HR MAX TEMP:  77;

OSCEOLA        MOSUNNY   77  54  45 N8        30.25F
6HR MIN TEMP:  56; 6HR MAX TEMP:  77;

$$

WIZ003>005-009-010-017-018-231900-
NORTH CENTRAL WISCONSIN

CITY           SKY/WX    TMP DP  RH WIND       PRES   REMARKS
WOODRUFF       PTSUNNY   74  57  56 NE7       30.24F
6HR MIN TEMP:  57; 6HR MAX TEMP:  74;

RHINELANDER    CLOUDY    67  51  56 VRB5      30.25S
6HR MIN TEMP:  56; 6HR MAX TEMP:  67;

EAGLE RIVER    PTSUNNY   67  49  52 N6        30.24F
6HR MIN TEMP:  53; 6HR MAX TEMP:  67;

LAND O LAKES   CLOUDY    66  51  57 NE3       30.26S
6HR MIN TEMP:  54; 6HR MAX TEMP:  67;

PHILLIPS       PTSUNNY   71  54  55 N8G17     30.22S
6HR MIN TEMP:  55; 6HR MAX TEMP:  72;

TOMAHAWK       PTSUNNY   70  55  59 NE7       30.24F
6HR MIN TEMP:  51; 6HR MAX TEMP:  70;

MEDFORD        PTSUNNY   70  55  58 N6        30.23S
6HR MIN TEMP:  55; 6HR MAX TEMP:  72;

MERRILL        MOSUNNY   69  55  60 NE10      30.22F
6HR MIN TEMP:  53; 6HR MAX TEMP:  70;

$$

WIZ029-030-035-036-043>047-231900-
CENTRAL WISCONSIN

CITY           SKY/WX    TMP DP  RH WIND       PRES   REMARKS
WAUSAU         MOSUNNY   74  54  49 N8        30.20F
6HR MIN TEMP:  59; 6HR MAX TEMP:  74; 6HR PCP: TRACE;

MOSINEE        PTSUNNY   72  54  53 N12       30.23S
MARSHFIELD     MOSUNNY   75  55  49 VRB7      30.21F
STEVENS POINT  PTSUNNY   72  52  49 N8        30.21S
6HR MIN TEMP:  56; 6HR MAX TEMP:  74;

WAUPACA        MOSUNNY   78  49  36 NW9       30.19F
6HR MIN TEMP:  59; 6HR MAX TEMP:  78;

WAUTOMA        PTSUNNY   76  53  44 N6        30.20F
6HR MIN TEMP:  60; 6HR MAX TEMP:  77;

WISC RAPIDS    MOSUNNY   77  53  43 N15       30.22F
6HR MIN TEMP:  61; 6HR MAX TEMP:  77;

CAMP DOUGLAS   PTSUNNY   75  59  57 NW6       30.21F
$$

WIZ011>013-019>022-031-037>040-048>050-231900-
NORTHEAST WISCONSIN

CITY           SKY/WX    TMP DP  RH WIND       PRES   REMARKS
ANTIGO         MOSUNNY   70  51  51 N9        30.23F
6HR MIN TEMP:  55; 6HR MAX TEMP:  70;

STURGEON BAY   SUNNY     68  48  49 N14G21    30.21S
6HR MIN TEMP:  61; 6HR MAX TEMP:  68;

GREEN BAY      PTSUNNY   74  53  48 NE13      30.19F
6HR MIN TEMP:  61; 6HR MAX TEMP:  75;

MANITOWOC      SUNNY     66  53  63 E12G18    30.19S
6HR MIN TEMP:  61; 6HR MAX TEMP:  70;

APPLETON       PTSUNNY   72  50  46 N14G22    30.20F
CLINTONVILLE   CLOUDY    75  46  35 NE7       30.19F
OSHKOSH        MOSUNNY   75  51  43 N16       30.18F
6HR MIN TEMP:  62; 6HR MAX TEMP:  75;

$$

WIZ032>034-041-042-053>061-231900-
SOUTHWEST WISCONSIN

CITY           SKY/WX    TMP DP  RH WIND       PRES   REMARKS
LA CROSSE      MOSUNNY   78  57  48 W9        30.21S
6HR MIN TEMP:  66; 6HR MAX TEMP:  80;

SPARTA         MOSUNNY   77  53  43 W5        30.22S
6HR MIN TEMP:  55; 6HR MAX TEMP:  77;

VIROQUA        FAIR      74  56  52 N7        30.23S
6HR MIN TEMP:  60; 6HR MAX TEMP:  76;

BOSCOBEL       MOSUNNY   81  56  42 MISG      30.20F HX  81
6HR MIN TEMP:  62; 6HR MAX TEMP:  81;

PRAIRIE DU CHI MOSUNNY   76  52  41 NE9       30.20F
PLATTEVILLE    FAIR      75  55  50 N10       30.21S
6HR MIN TEMP:  62; 6HR MAX TEMP:  76;

$$

WIZ056-057-062-063-064-067-068-231900-
SOUTH CENTRAL WISCONSIN

CITY           SKY/WX    TMP DP  RH WIND       PRES   REMARKS
BARABOO/DELLS  MOSUNNY   76  50  38 N6        30.20F
6HR MIN TEMP:  61; 6HR MAX TEMP:  77;

LONE ROCK      PTSUNNY   80  56  43 NE9       30.20S HX  80
6HR MIN TEMP:  66; 6HR MAX TEMP:  81;

WATERTOWN      MOSUNNY   73  55  52 N12G21    30.18F
6HR MIN TEMP:  62; 6HR MAX TEMP:  74;

MADISON        PTSUNNY   78  54  43 N15       30.19F
6HR MIN TEMP:  62; 6HR MAX TEMP:  78;

MIDDLETON      MOCLDY    74  51  42 NE10      30.20S
6HR MIN TEMP:  63; 6HR MAX TEMP:  78;

MONROE         PTSUNNY   73  54  49 N10       30.19F
JANESVILLE     MOSUNNY   73  52  46 N13G18    30.18S
$$

WIZ051-052-058>065-066-070>072-231900-
SOUTHEAST WISCONSIN

CITY           SKY/WX    TMP DP  RH WIND       PRES   REMARKS
MILWAUKEE      MOSUNNY   68  54  60 NE16      30.18F
6HR MIN TEMP:  62; 6HR MAX TEMP:  69;

WAUKESHA       PTSUNNY   72  50  46 NE12      30.18F
MILWAUKEE/TIMM MOSUNNY   72  48  43 NE14G20   30.19S
RACINE         SUNNY     67  54  63 NE17G23   30.20S
6HR MIN TEMP:  61; 6HR MAX TEMP:  69;

BURLINGTON     PTSUNNY   71  54  55 N5        30.17F
6HR MIN TEMP:  59; 6HR MAX TEMP:  72;

KENOSHA        SUNNY     71  50  47 N12G21    30.18S
6HR MIN TEMP:  62; 6HR MAX TEMP:  71;

FOND DU LAC    SUNNY     74  51  44 NE14      30.20F
6HR MIN TEMP:  61; 6HR MAX TEMP:  74;

SHEBOYGAN      SUNNY     66  54  65 NE15      30.19S
6HR MIN TEMP:  61; 6HR MAX TEMP:  71;

WEST BEND      PTSUNNY   72  48  43 N10G17    30.17S
JUNEAU         SUNNY     73  48  42 NE12      30.20F
6HR MIN TEMP:  60; 6HR MAX TEMP:  73;

$$

LSZ147-162-231900-
LAKE SUPERIOR

STATION/POSITION TIME  TEMP    WIND        PRES    WAVE
                       AIR SEA DIR/SP/G            HT/PER
                 (UTC) (F)     (DEG/KT/KT) (MB)    (FT/S)
$$

LMZ867-665-643>646-231900-
LAKE MICHIGAN

STATION/POSITION TIME  TEMP    WIND        PRES    WAVE
                       AIR SEA DIR/SP/G            HT/PER
                 (UTC) (F)     (DEG/KT/KT) (MB)    (FT/S)
$$

TC  - TEMPERATURE IN CELSIUS
VSB - VISIBILITY IN STATUTE MILES
WCI - WIND CHILL INDEX
HX  - HEAT INDEX



USA.gov is the U.S. government's official web portal to all federal, state and local government web resources and services.